www.pogodaiklimat.ru

Погода и климат >> Архив погоды >> Россия >> Дагестан >> Изберг


ПОГОДА в Изберге

  • Прогноз погоды в Изберге
  • Монитор погоды в Изберге
  • Климат города

АРХИВ ПОГОДЫ в Изберге

Время (UTC), дата Ветер
(напр.,м/с)
 
Видим.   Явления Облачность Т
(С)
Тd
(С)
f
(%)
Тe
(С)
Тes
(С)
Комфортность P
(гПа)
Po
(гПа)
Тmin
(С)
Tmax
(С)
R
(мм)
R24
(мм)
S
(см)
09 13.01 СЗ 7-10
{12}
20 км 10/10 600 м
[Cb calv]
-1.7 -5.6 75 -9 -9 1029.8 1032.1
12 13.01 СЗ 7-10
{11}
20 км 10/10 600 м
[Cu hum]
-1.9 -5.2 78 -9 -9 1030.7 1033.0
15 13.01 СЗ 6-10
{11}
20 км 10/10 600 м
[Cb calv]
-2.6 -5.6 80 -10 -10 1032.7 1035.0 -1.6
18 13.01 СЗ 3
{11}
20 км 10/6 600 м
[Cu hum Ac trans]
-2.7 -6.1 77 -8 -8 1032.8 1035.1
21 13.01 СЗ 4 20 км 10/10 600 м
[Cb calv]
-1.1 -6.7 66 -6 -6 1032.1 1034.4
00 14.01 З 3 20 км 10/0 600 м
[]
-1.3 -3.5 85 -6 -6 1031.5 1033.8
03 14.01 СЗ 3 20 км 10/10 600 м
[Cb calv]
-0.7 -2.7 86 -6 -6 1031.0 1033.3 -3.1
06 14.01 СЗ 2 10 км слабая крупа {ливн. осадки} 10/10 600 м
[Cb cap]
-0.5 -1.7 92 -4 -4 1031.0 1033.3
09 14.01 СЗ 2 10 км слабый ливневой снег 10/10 600 м
[Cb cap]
+0.3 -0.7 93 -3 -3 1029.3 1031.6
12 14.01 СЗ 2 20 км в посл. час ливневой снег 10/10 600 м
[Cb calv]
+1.0 -0.0 93 -3 -3 1028.7 1031.0
15 14.01 Ю 1 10 км слабый ливневой дождь со снегом 10/10 600 м
[Cb cap]
+1.0 +0.3 95 -1 -1 1029.4 1031.7 +1.2 2
18 14.01 ЮВ 3 10 км слабый ливневой дождь 10/10 600 м
[Cb cap]
+1.2 +0.6 96 -3 -3 1029.7 1032.0
21 14.01 З 1 10 км слабый ливневой дождь 10/10 600 м
[Cb cap]
+0.8 +0.2 96 -1 -1 1029.1 1031.4
00 15.01 ЮЗ 1 10 км в посл. час ливневой дождь 10/10 600 м
[Cb calv]
+1.1 +0.3 94 -1 -1 1029.0 1031.3
03 15.01 ЮЗ 1 20 км 10/10 600 м
[Cb calv]
+1.0 +0.3 95 -1 -1 1030.0 1032.3 +0.5 4
06 15.01 Ю 1 20 км 10/10 600 м
[Cb calv]
+2.0 +0.9 92 0 0 1031.0 1033.3
09 15.01 ЮВ 4 20 км 10/8 600 м
[Cb calv As trans]
+3.0 +0.7 85 -2 -2 1030.6 1032.9
12 15.01 ЮВ 4 20 км 10/10 600 м
[Cb calv]
+2.9 +0.4 84 -2 -2 1030.7 1033.0
15 15.01 В 9-10
{11}
20 км 10/10 600 м
[Cb calv]
+3.1 +0.1 81 -4 -4 1031.2 1033.5 +3.5
18 15.01 В 8-10
{11}
20 км 10/10 600 м
[Cb calv]
+3.1 -1.1 74 -3 -3 1031.9 1034.2
21 15.01 В 7
{10}
20 км 10/10 600 м
[Cb calv]
+3.0 -1.1 74 -3 -3 1031.7 1034.0
00 16.01 Ю 2 10 км слабая крупа {ливн. осадки} 10/10 600 м
[Cb calv]
+2.0 -1.3 79 -1 -1 1031.5 1033.8
03 16.01 ЮВ 3 20 км {ливн. осадки} 10/10 600 м
[Cb calv]
+2.7 -1.9 72 -1 -1 1031.0 1033.3 +1.6 0.5
06 16.01 В 8
{10}
10 км слабая крупа {ливн. осадки} 10/10 600 м
[Cb cap]
+2.5 -1.8 73 -4 -4 1031.3 1033.6
09 16.01 В 7-10
{11}
20 км {ливн. осадки} 10/9 600 м
[Cb calv Ac trans]
+2.4 -2.0 73 -4 -4 1029.5 1031.8
12 16.01 В 8
{10}
20 км {ливн. осадки} 10/10 600 м
[Cb calv]
+2.3 -1.9 74 -4 -4 1028.1 1030.4
15 16.01 ЮВ 5 20 км 10/10 600 м
[Sc diur, vesp]
+2.2 -2.0 74 -3 -3 1027.5 1029.8 +2.9 0.0
18 16.01 Ю 2 10 км слабый ливневой дождь 10/10 600 м
[Cb cap]
+0.6 -1.1 88 -3 -3 1026.7 1029.0
21 16.01 Ю 2 20 км 9/9 600 м
[Cb calv]
+0.5 -1.8 85 -3 -3 1024.5 1026.8
00 17.01 Ю 2 20 км {ливн. осадки} 9/6 600 м
[Cu hum Ac trans]
-0.0 -2.2 85 -4 -4 1022.3 1024.6
03 17.01 Ю 2 20 км 6/3 600 м
[Cu hum Ac trans]
-0.8 -2.8 86 -5 -5 1020.6 1022.9 -1.5 0.0
06 17.01 Ю 3 50 км 4/3 600 м
[Cu hum Ac trans Ci fib]
+1.0 -2.6 77 -3 -2 1019.5 1021.7
09 17.01 ЮВ 6 50 км 8/3 600 м
[Cu hum Ac und]
+4.2 +0.6 77 -1 -0 1017.3 1019.6
12 17.01 ЮВ 6 20 км 9/1 600 м
[Cu hum Ac und]
+3.6 +1.1 84 -2 -2 1015.8 1018.1
15 17.01 Ю 2 20 км 10/6 600 м
[Cu hum Ac trans]
+3.2 +1.1 86 0 0 1015.6 1017.9 +4.4
18 17.01 ЮВ 1 20 км 10/10 600 м
[Sc]
+3.0 +1.4 89 +1 +1 1015.1 1017.4
21 17.01 ЮВ 2 20 км {ливн. осадки} 10/10 600 м
[Cb calv]
+3.2 +1.2 87 0 0 1014.0 1016.2
00 18.01 ЮЗ 3 20 км {ливн. осадки} 10/10 600 м
[Cb calv]
+3.1 -0.8 76 -1 -1 1012.9 1015.2
03 18.01 ЮЗ 1 20 км 10/3 600 м
[Cu hum Ac und]
+3.1 -0.8 76 +2 +2 1012.9 1014.5 +2.8 0.0
06 18.01 С 3 20 км 10/10 600 м
[Cu hum]
+4.0 +1.4 83 0 0 1011.6 1013.9
09 18.01 С 2 10 км 10/10 600 м
[Sc diur, vesp]
+3.0 +1.5 90 -0 -0 1008.9 1011.1
12 18.01 С 2 4000 м дымка 10/10 600 м
[Sc diur, vesp]
+3.2 +1.8 91 0 0 1006.2 1008.4
15 18.01 ЮЗ 1 20 км 10/4 600 м
[Cu hum Ac und]
+2.2 +0.9 91 0 0 1005.2 1007.5 +4.0
18 18.01 СЗ 2 20 км 10/0
[Ac und]
+2.9 +1.4 90 -0 -0 1004.5 1006.7
21 18.01 СЗ 3 20 км 10/10 600 м
[Cu hum]
+3.4 -0.3 77 -0 -0 1004.2 1006.5
00 19.01 З 2 20 км 9/0 600 м
[]
+2.9 +0.9 87 -0 -0 1005.0 1007.2
03 19.01 З 2 20 км 10/10 600 м
[Cu hum]
+4.2 0.0 74 +2 +2 1005.5 1007.7 +1.9
06 19.01 С 3 20 км 10/10 600 м
[Sc diur, vesp]
+3.1 +1.1 87 -1 -1 1007.7 1009.9
09 19.01 СЗ 5 20 км 10/10 600 м
[Cu Sc]
+3.1 +1.1 87 -2 -2 1008.3 1010.5
12 19.01 СЗ 5 20 км 10/9 600 м
[Cu hum Ac trans]
+2.6 +0.7 87 -3 -3 1009.6 1011.8
15 19.01 С 4 20 км 10/10 600 м
[Cu hum]
+2.8 +0.9 87 -2 -2 1011.7 1014.0 +4.3
18 19.01 СЗ 5 10 км 10/10 600 м
[Sc diur, vesp]
+2.2 +0.9 91 -3 -3 1013.5 1015.7
21 19.01 СЗ 4
{11}
10 км слабая морось 10/10 600 м
[St]
+0.9 +0.2 95 -5 -5 1015.4 1017.7
00 20.01 СЗ 3
{11}
10 км {морось} 10/10 600 м
[St]
+1.1 -0.3 90 -3 -3 1017.1 1019.4
03 20.01 СЗ 5
{10}
10 км 10/10 600 м
[St]
+0.3 -0.9 92 -6 -6 1019.1 1021.4 +0.3 0.0
06 20.01 СЗ 7-11
{13}
20 км 10/10 600 м
[Cb calv]
+0.6 -1.1 88 -6 -6 1022.7 1025.0 +0.3

 

Местоположение метеостанции Изберг (Дагестан, Россия): широта 42.53 долгота 47.92 высота над уровнем моря -16 м.

В архиве по умолчанию представлена погода в Изберге за последнюю неделю. Архивные данные за месяц целиком и за предыдущие месяцы, начиная с января 2011 года, Вы можете получить, выбрав интересующий диапазон дат из раскрывающегося списка и нажав кнопку "Ввод!".

Внимание! Время в таблицах - всемирное. Для получения местного времени необходимо прибавить поправку, которая в Изберге равна 3 ч.

Смотрите также архив погоды в соседних городах и на ближайших метеорологических станциях:

Погода в Сергокале (Дагестан, Россия) (22 км)
Погода в Дербенте (Дагестан, Россия) (60 км)
Погода в Махачкале (Дагестан, Россия) (65 км)
Погода в Куппе (Дагестан, Россия) (68 км)
Погода в Буйнакске (Дагестан, Россия) (73 км)
Погода в Гунибе (Дагестан, Россия) (79 км)
Погода в Кумухе (Дагестан, Россия) (80 км)
Погода в Касумкенте (Дагестан, Россия) (98 км)
Погода в Хунзахе (Дагестан, Россия) (100 км)
Погода в Ахты (Дагестан, Россия) (119 км)

Пояснения к столбцам:

Ветер - указаны скорость ветра в м/с - средняя за 10 мин, порывы в срок и между сроками (в фигурных скобках) и направление, откуда дует ветер: С - северный, СВ - северо-восточный, В - восточный, ЮВ - юго-восточный, Ю - южный, ЮЗ - юго-западный, З - западный, СЗ - северо-западный.
Видимость - горизонтальная дальность видимости в метрах или километрах. При видимости от 1 до 10 км при отсутствии осадков обычно наблюдается дымка, при ухудшении видимости до 1 км и менее - туман. В сухую погоду видимость может ухудшаться дымом, пылью или мглою.
Явления - указаны атмосферные явления, наблюдавшиеся в срок или в последний час перед сроком; фигурными скобками обозначены явления, наблюдавшиеся между сроками (за 1-3 часа до срока); квадратными скобками обозначены град или гололедные отложения с указанием их диаметра в мм.
Облачность - указаны через наклонную черту общая и нижняя облачность в баллах и высота нижней границы облаков в метрах; квадратными скобками обозначены формы облаков: Ci - перистые, Cs - перисто-слоистые, Cc - перисто-кучевые, Ac - высококучевые, As - высокослоистые, Sc - слоисто-кучевые, Ns - слоисто-дождевые, Cu - кучевые, Cb - кучево-дождевые. Подробнее классификацию облаков см. в Атласе облаков (PDF).
T - Температура воздуха - температура, измеренная на высоте 2 м над землей.
Td - Температура точки росы - температура, при понижении до которой содержащийся в воздухе водяной пар достигнет насыщения.
f - Относительная влажность воздуха - влажноcть воздуха, измеренная на высоте 2 м над землей.
Te - Эффективная температура - температура, которую ощущает одетый по сезону человек в тени. Характеристика душности погоды. При расчете учитывается влияние влажности воздуха и скорости ветра на теплоощущения человека.
Tes - Эффективная температура на солнце - температура, которую ощущает человек, с поправкой на солнечный нагрев. Характеристика знойности погоды. Зависит от высоты солнца над горизонтом, облачности и скорости ветра. Ночью, в пасмурную погоду, а также при ветре 12 м/с и более поправка равна нулю.
P - Атмосферное давление - приведенное к уровню моря атмосферное давление.
Po - Атмосферное давление - измеренное на уровне метеостанции атмосферное давление.
Tmin - Минимальная температура - минимум температуры воздуха на высоте 2 м над землей.
Tmax - Максимальная температура - максимум температуры воздуха на высоте 2 м над землей.
R - Количество осадков - Количество выпавших осадков за период времени, мм. При наведении курсора мыши на число - период времени, за который выпало указанное количество осадков.
R24 - Количество осадков - Количество выпавших осадков за 24 часа, мм.
S - Снежный покров - Высота снежного покрова, см. При наведении курсора мыши на число - состояние снежного покрова и степень покрытия местности в баллах.